TimePDT,TemperatureF,Dew PointF,Humidity,Sea Level PressureIn,VisibilityMPH,Wind Direction,Wind SpeedMPH,Gust SpeedMPH,PrecipitationIn,Events,Conditions,WindDirDegrees,DateUTC
12:15 AM,48.2,48.2,100,29.84,10.0,South,3.5,-,0.00,,Overcast,190,2012-10-12 07:15:00
12:35 AM,48.2,48.2,100,29.83,9.0,Calm,Calm,-,0.00,,Overcast,0,2012-10-12 07:35:00
12:55 AM,48.2,48.2,100,29.83,7.0,Calm,Calm,-,0.00,,Overcast,0,2012-10-12 07:55:00
1:15 AM,48.2,48.2,100,29.83,7.0,Calm,Calm,-,0.00,,Overcast,0,2012-10-12 08:15:00
1:35 AM,48.2,48.2,100,29.82,7.0,Calm,Calm,-,0.00,,Overcast,0,2012-10-12 08:35:00
1:55 AM,48.2,48.2,100,29.82,5.0,ESE,4.6,-,0.00,,Overcast,120,2012-10-12 08:55:00
2:15 AM,48.2,48.2,100,29.83,5.0,Calm,Calm,-,0.00,,Overcast,0,2012-10-12 09:15:00
2:35 AM,48.2,48.2,100,29.83,5.0,Calm,Calm,-,0.00,,Overcast,0,2012-10-12 09:35:00
3:15 AM,48.2,48.2,100,29.85,5.0,SSW,5.8,-,0.00,,Overcast,200,2012-10-12 10:15:00
3:35 AM,48.2,48.2,100,29.86,5.0,South,4.6,-,0.00,,Overcast,170,2012-10-12 10:35:00
3:55 AM,48.2,48.2,100,29.86,4.0,SSE,5.8,-,0.00,,Overcast,160,2012-10-12 10:55:00
4:15 AM,48.2,48.2,100,29.86,4.0,SSE,6.9,-,0.00,,Overcast,150,2012-10-12 11:15:00
5:15 AM,48.2,48.2,100,29.86,5.0,SSE,8.1,-,0.00,,Overcast,150,2012-10-12 12:15:00
5:35 AM,48.2,48.2,100,29.84,5.0,SE,8.1,-,0.00,,Overcast,130,2012-10-12 12:35:00
5:55 AM,48.2,48.2,100,29.85,5.0,SSE,4.6,-,0.00,,Overcast,160,2012-10-12 12:55:00
6:15 AM,48.2,48.2,100,29.86,5.0,SW,6.9,-,0.00,,Overcast,220,2012-10-12 13:15:00
6:35 AM,48.2,48.2,100,29.87,9.0,South,4.6,-,0.00,,Overcast,180,2012-10-12 13:35:00
7:15 AM,48.2,48.2,100,29.87,6.0,Calm,Calm,-,0.00,,Overcast,0,2012-10-12 14:15:00
7:35 AM,50.0,50.0,100,29.87,10.0,SSE,6.9,-,0.00,,Overcast,160,2012-10-12 14:35:00
7:55 AM,51.8,51.8,100,29.88,10.0,SSE,4.6,-,0.00,,Overcast,160,2012-10-12 14:55:00
8:15 AM,51.8,51.8,100,29.87,10.0,SSE,8.1,-,0.00,,Overcast,150,2012-10-12 15:15:00
8:35 AM,51.8,51.8,100,29.88,10.0,SSE,6.9,-,0.00,,Overcast,150,2012-10-12 15:35:00
8:55 AM,51.8,51.8,100,29.88,10.0,SSE,4.6,-,0.00,,Overcast,150,2012-10-12 15:55:00
9:15 AM,51.8,51.8,100,29.88,8.0,SSE,6.9,-,0.00,,Overcast,150,2012-10-12 16:15:00
9:35 AM,51.8,51.8,100,29.88,6.0,SE,9.2,-,0.00,,Overcast,140,2012-10-12 16:35:00
10:15 AM,53.6,53.6,100,29.88,8.0,SSE,6.9,-,0.00,,Overcast,150,2012-10-12 17:15:00
10:35 AM,53.6,53.6,100,29.88,10.0,SSE,10.4,16.1,0.00,,Overcast,150,2012-10-12 17:35:00
10:55 AM,53.6,53.6,100,29.89,5.0,SSE,10.4,-,0.00,,Overcast,150,2012-10-12 17:55:00
11:35 AM,53.6,53.6,100,29.90,3.0,SE,9.2,-,0.01,,Overcast,130,2012-10-12 18:35:00
12:55 PM,55.4,53.6,94,29.91,10.0,ESE,11.5,16.1,0.01,,Overcast,120,2012-10-12 19:55:00
1:35 PM,55.4,53.6,94,29.89,10.0,SE,11.5,18.4,0.00,,Overcast,130,2012-10-12 20:35:00
1:55 PM,55.4,53.6,94,29.90,9.0,SE,11.5,17.3,0.00,,Overcast,140,2012-10-12 20:55:00
2:15 PM,55.4,53.6,94,29.90,10.0,SE,10.4,-,0.00,,Overcast,140,2012-10-12 21:15:00
2:35 PM,55.4,53.6,94,29.90,10.0,SE,9.2,-,0.00,,Overcast,130,2012-10-12 21:35:00
2:55 PM,55.4,53.6,94,29.90,10.0,SE,9.2,18.4,0.00,,Overcast,140,2012-10-12 21:55:00
3:15 PM,55.4,53.6,94,29.90,10.0,SSE,10.4,18.4,0.00,,Overcast,150,2012-10-12 22:15:00
3:35 PM,55.4,53.6,94,29.90,10.0,SE,10.4,-,0.00,,Overcast,140,2012-10-12 22:35:00
4:15 PM,55.4,53.6,94,29.90,10.0,SSE,10.4,18.4,0.00,,Overcast,150,2012-10-12 23:15:00
4:35 PM,55.4,53.6,94,29.90,10.0,SSE,9.2,-,0.00,,Overcast,150,2012-10-12 23:35:00
4:55 PM,57.2,53.6,88,29.90,10.0,SE,10.4,-,0.00,,Overcast,130,2012-10-12 23:55:00
5:15 PM,57.2,53.6,88,29.90,10.0,SE,10.4,17.3,0.00,,Overcast,140,2012-10-13 00:15:00
5:55 PM,57.2,53.6,88,29.90,10.0,SE,11.5,-,0.00,,Overcast,140,2012-10-13 00:55:00
6:15 PM,57.2,53.6,88,29.90,9.0,SSE,9.2,-,0.00,,Overcast,150,2012-10-13 01:15:00
6:35 PM,55.4,55.4,100,29.90,9.0,SSE,8.1,-,0.01,,Overcast,150,2012-10-13 01:35:00
6:55 PM,55.4,55.4,100,29.91,4.0,SSE,5.8,-,0.02,,Overcast,150,2012-10-13 01:55:00
7:15 PM,55.4,55.4,100,29.91,5.0,SE,6.9,-,0.02,,Overcast,130,2012-10-13 02:15:00
7:35 PM,53.6,53.6,100,29.91,3.0,SSE,5.8,-,0.04,,Overcast,150,2012-10-13 02:35:00
8:15 PM,55.4,55.4,100,29.92,5.0,SE,8.1,-,0.02,,Overcast,130,2012-10-13 03:15:00
8:55 PM,55.4,55.4,100,29.93,10.0,SE,8.1,-,0.05,,Overcast,130,2012-10-13 03:55:00
9:15 PM,55.4,55.4,100,29.93,10.0,SE,10.4,16.1,0.00,,Overcast,140,2012-10-13 04:15:00
9:35 PM,55.4,55.4,100,29.93,10.0,SE,9.2,16.1,0.00,,Overcast,140,2012-10-13 04:35:00
10:15 PM,55.4,55.4,100,29.94,10.0,SE,11.5,-,0.00,,Overcast,130,2012-10-13 05:15:00
10:35 PM,55.4,55.4,100,29.95,10.0,SE,10.4,-,0.01,,Overcast,140,2012-10-13 05:35:00
10:55 PM,55.4,55.4,100,29.95,10.0,SE,11.5,-,0.01,,Overcast,140,2012-10-13 05:55:00
11:15 PM,55.4,55.4,100,29.96,10.0,SSE,12.7,20.7,0.00,,Overcast,150,2012-10-13 06:15:00